Change the Weather History Date:

Tuesday, February 19, 2013

  Actual Average Record
Temperature  
Mean Temperature 19 °F -  
Max Temperature 28 °F 39 °F 63 °F (1983)
Min Temperature 10 °F 18 °F -10 °F (1978)
Degree Days  
Heating Degree Days 46    
Moisture  
Dew Point 1 °F    
Average Humidity 53    
Maximum Humidity 73    
Minimum Humidity 21    
Precipitation  
Precipitation 0.00 in - - ()
Sea Level Pressure  
Sea Level Pressure 30.24 in    
Wind  
Wind Speed 15 mph (NW)    
Max Wind Speed 22 mph    
Max Gust Speed 31 mph    
Visibility 10 miles    
Events      
Averages and records for this station are not official NWS values.
T = Trace of Precipitation, MM = Missing Value Source: NWS Daily Summary

Daily Weather History Graph

Daily Weather History Graph

Search for Another Location

Airport or City:

Trip Planner

Search our weather history database for the weather conditions in past years. The results will help you decide how hot, cold, wet, or windy it might be!

Date:

Astronomy

Feb. 19, 2013 Rise Set
Actual Time 7:09 AM CST 6:00 PM CST
Civil Twilight 6:41 AM CST 6:28 PM CST
Nautical Twilight 6:09 AM CST 7:00 PM CST
Astronomical Twilight 5:37 AM CST 7:32 PM CST
Moon 12:31 PM CST (2/19) 2:43 AM CST (2/19)
Length of Visible Light 11h 47m
Length of Day
10h 51m
Waxing Gibbous, 67% of the Moon is Illuminated
Feb 19
Waxing Gibbous
Feb 25
Full
Mar 4
Last Quarter
Mar 11
New
Mar 19
First Quarter

Hourly Weather History & Observations

Time (CST) Temp. Windchill Dew Point Humidity Pressure Visibility Wind Dir Wind Speed Gust Speed Precip Events Conditions
12:15 AM 19.4 °F 3.6 °F 10.4 °F 68% 30.05 in 10.0 mi NW 19.6 mph 27.6 mph N/A   Scattered Clouds
12:35 AM 19.4 °F 4.1 °F 10.4 °F 68% 30.06 in 10.0 mi NW 18.4 mph 26.5 mph N/A   Clear
12:55 AM 19.4 °F 4.5 °F 10.4 °F 68% 30.07 in 10.0 mi NW 17.3 mph 24.2 mph N/A   Clear
1:15 AM 19.4 °F 5.5 °F 8.6 °F 63% 30.08 in 10.0 mi NW 15.0 mph - N/A   Clear
1:35 AM 17.6 °F 4.3 °F 8.6 °F 68% 30.08 in 10.0 mi NW 12.7 mph 17.3 mph N/A   Clear
1:55 AM 17.6 °F 3.2 °F 8.6 °F 68% 30.08 in 10.0 mi NW 15.0 mph 23.0 mph N/A   Clear
2:15 AM 15.8 °F -0.6 °F 8.6 °F 73% 30.09 in 10.0 mi NW 18.4 mph 27.6 mph N/A   Clear
2:35 AM 15.8 °F -0.6 °F 6.8 °F 68% 30.10 in 10.0 mi NW 18.4 mph 31.1 mph N/A   Clear
2:55 AM 15.8 °F 0.9 °F 6.8 °F 68% 30.11 in 10.0 mi NNW 15.0 mph 26.5 mph N/A   Clear
3:15 AM 15.8 °F 0.9 °F 6.8 °F 68% 30.12 in 10.0 mi NW 15.0 mph - N/A   Clear
3:35 AM 14.0 °F -2.5 °F 5.0 °F 67% 30.12 in 10.0 mi NW 17.3 mph 25.3 mph N/A   Clear
3:55 AM 12.2 °F -1.8 °F 3.2 °F 67% 30.13 in 10.0 mi NW 11.5 mph 21.9 mph N/A   Clear
4:15 AM 12.2 °F 0.7 °F 3.2 °F 67% 30.14 in 10.0 mi NW 8.1 mph 18.4 mph N/A   Clear
4:35 AM 12.2 °F -0.2 °F 3.2 °F 67% 30.15 in 10.0 mi WNW 9.2 mph - N/A   Mostly Cloudy
4:55 AM 12.2 °F -3.7 °F 3.2 °F 67% 30.15 in 10.0 mi NW 15.0 mph 25.3 mph N/A   Mostly Cloudy
5:15 AM 12.2 °F -2.5 °F 3.2 °F 67% 30.16 in 10.0 mi NW 12.7 mph 24.2 mph N/A   Overcast
5:55 AM 10.4 °F -4.8 °F 3.2 °F 73% 30.18 in 10.0 mi NW 12.7 mph 25.3 mph N/A   Overcast
6:15 AM 10.4 °F -4.8 °F 1.4 °F 67% 30.18 in 10.0 mi NW 12.7 mph 21.9 mph N/A   Mostly Cloudy
6:35 AM 10.4 °F -7.2 °F 1.4 °F 67% 30.18 in 10.0 mi NW 17.3 mph 26.5 mph N/A   Scattered Clouds
6:55 AM 10.4 °F -5.4 °F 1.4 °F 67% 30.19 in 10.0 mi NW 13.8 mph 20.7 mph N/A   Clear
7:15 AM 10.4 °F -4.8 °F 1.4 °F 67% 30.21 in 10.0 mi NW 12.7 mph 18.4 mph N/A   Clear
7:35 AM 10.4 °F -5.4 °F 1.4 °F 67% 30.22 in 10.0 mi NW 13.8 mph 20.7 mph N/A   Clear
7:55 AM 12.2 °F -4.3 °F 1.4 °F 62% 30.23 in 10.0 mi NW 16.1 mph 25.3 mph N/A   Clear
8:15 AM 12.2 °F -3.7 °F 1.4 °F 62% 30.24 in 10.0 mi NW 15.0 mph 19.6 mph N/A   Scattered Clouds
8:35 AM 10.4 °F -7.2 °F 1.4 °F 67% 30.25 in 10.0 mi NW 17.3 mph 21.9 mph N/A   Overcast
8:55 AM 12.2 °F -5.3 °F 1.4 °F 62% 30.26 in 10.0 mi NW 18.4 mph 25.3 mph N/A   Overcast
9:15 AM 12.2 °F -5.3 °F 3.2 °F 67% 30.27 in 10.0 mi NW 18.4 mph 26.5 mph N/A   Overcast
9:35 AM 14.0 °F -3.4 °F 3.2 °F 62% 30.28 in 10.0 mi NW 19.6 mph 27.6 mph N/A   Mostly Cloudy
9:55 AM 15.8 °F -0.2 °F 3.2 °F 58% 30.28 in 10.0 mi NW 17.3 mph 25.3 mph N/A   Mostly Cloudy
10:15 AM 15.8 °F -0.2 °F 3.2 °F 58% 30.29 in 10.0 mi NW 17.3 mph 25.3 mph N/A   Scattered Clouds
10:35 AM 15.8 °F 0.3 °F 3.2 °F 58% 30.29 in 10.0 mi NW 16.1 mph 26.5 mph N/A   Scattered Clouds
10:55 AM 17.6 °F 2.7 °F 1.4 °F 49% 30.29 in 10.0 mi NNW 16.1 mph 21.9 mph N/A   Clear
11:15 AM 17.6 °F 1.7 °F 3.2 °F 53% 30.30 in 10.0 mi NNW 18.4 mph 21.9 mph N/A   Clear
11:35 AM 19.4 °F 4.1 °F 3.2 °F 49% 30.30 in 10.0 mi NW 18.4 mph 27.6 mph N/A   Clear
11:55 AM 21.2 °F 6.4 °F 3.2 °F 46% 30.30 in 10.0 mi NW 18.4 mph 28.8 mph N/A   Clear
12:15 PM 21.2 °F 6.4 °F 3.2 °F 46% 30.29 in 10.0 mi NW 18.4 mph 25.3 mph N/A   Clear
12:35 PM 21.2 °F 6.8 °F 3.2 °F 46% 30.29 in 10.0 mi NW 17.3 mph 27.6 mph N/A   Clear
12:55 PM 23.0 °F 9.6 °F 1.4 °F 39% 30.29 in 10.0 mi NW 16.1 mph 25.3 mph N/A   Clear
1:15 PM 24.8 °F 10.0 °F 1.4 °F 36% 30.28 in 10.0 mi NW 21.9 mph 28.8 mph N/A   Clear
1:35 PM 24.8 °F 12.4 °F -0.4 °F 34% 30.29 in 10.0 mi WNW 15.0 mph 28.8 mph N/A   Clear
1:55 PM 26.6 °F 13.4 °F 1.4 °F 34% 30.28 in 10.0 mi WNW 18.4 mph 24.2 mph N/A   Clear
2:15 PM 26.6 °F 13.8 °F -2.2 °F 29% 30.28 in 10.0 mi NW 17.3 mph 24.2 mph N/A   Clear
2:35 PM 26.6 °F 13.8 °F -2.2 °F 29% 30.28 in 10.0 mi WNW 17.3 mph 24.2 mph N/A   Clear
2:55 PM 26.6 °F 13.4 °F -5.8 °F 24% 30.28 in 10.0 mi NW 18.4 mph 23.0 mph N/A   Clear
3:15 PM 28.4 °F 17.0 °F -5.8 °F 23% 30.28 in 10.0 mi NW 15.0 mph 26.5 mph N/A   Clear
3:35 PM 26.6 °F 13.8 °F -7.6 °F 22% 30.28 in 10.0 mi NNW 17.3 mph 24.2 mph N/A   Clear
3:55 PM 26.6 °F 15.2 °F -7.6 °F 22% 30.29 in 10.0 mi WNW 13.8 mph 23.0 mph N/A   Clear
4:15 PM 26.6 °F 15.2 °F -7.6 °F 22% 30.29 in 10.0 mi NW 13.8 mph 21.9 mph N/A   Clear
4:35 PM 26.6 °F 15.2 °F -9.4 °F 21% 30.29 in 10.0 mi NNW 13.8 mph 21.9 mph N/A   Clear
4:55 PM 26.6 °F 15.7 °F -7.6 °F 22% 30.29 in 10.0 mi NW 12.7 mph - N/A   Clear
5:15 PM 24.8 °F 14.0 °F -9.4 °F 22% 30.29 in 10.0 mi NW 11.5 mph - N/A   Clear
6:35 PM 21.2 °F 10.9 °F -5.8 °F 30% 30.28 in 10.0 mi NW 9.2 mph - N/A   Clear
6:55 PM 19.4 °F 10.4 °F -4.0 °F 36% 30.30 in 10.0 mi NW 6.9 mph - N/A   Clear
7:15 PM 17.6 °F 12.3 °F -2.2 °F 42% 30.31 in 10.0 mi NW 3.5 mph - N/A   Clear
7:35 PM 17.6 °F 9.3 °F -2.2 °F 42% 30.30 in 10.0 mi NNW 5.8 mph - N/A   Clear
7:55 PM 17.6 °F 7.3 °F -2.2 °F 42% 30.30 in 10.0 mi NNW 8.1 mph - N/A   Clear
8:15 PM 15.8 °F 4.2 °F -2.2 °F 45% 30.31 in 10.0 mi NNW 9.2 mph - N/A   Clear
8:35 PM 15.8 °F 5.1 °F -0.4 °F 49% 30.32 in 10.0 mi NW 8.1 mph - N/A   Clear
8:55 PM 15.8 °F 4.2 °F -0.4 °F 49% 30.32 in 10.0 mi NW 9.2 mph - N/A   Clear
9:15 PM 15.8 °F 3.4 °F -0.4 °F 49% 30.32 in 10.0 mi NNW 10.4 mph - N/A   Clear
9:35 PM 14.0 °F 3.9 °F -0.4 °F 53% 30.33 in 10.0 mi North 6.9 mph - N/A   Clear
9:55 PM 14.0 °F 3.9 °F 1.4 °F 57% 30.34 in 10.0 mi North 6.9 mph - N/A   Clear
10:15 PM 12.2 °F 6.1 °F 1.4 °F 62% 30.35 in 10.0 mi North 3.5 mph - N/A   Clear
10:35 PM 12.2 °F 2.9 °F 1.4 °F 62% 30.35 in 10.0 mi North 5.8 mph - N/A   Clear
10:55 PM 10.4 °F 2.2 °F 1.4 °F 67% 30.36 in 10.0 mi North 4.6 mph - N/A   Clear
11:15 PM 12.2 °F 2.9 °F -0.4 °F 57% 30.36 in 10.0 mi North 5.8 mph - N/A   Clear
11:35 PM 10.4 °F -1.5 °F -0.4 °F 62% 30.36 in 10.0 mi North 8.1 mph - N/A   Clear
11:55 PM 10.4 °F -1.5 °F 1.4 °F 67% 30.36 in 10.0 mi North 8.1 mph - N/A   Clear